[[{"header":{"parameterUnit":"m.s-1","parameterCategory":1,"la1":30.2991,"la2":30.254,"lo1":-89.0895,"lo2":-89.0444,"dy":0.0017,"dx":0.0017,"nx":28,"ny":28,"refTime":"2025-04-06T21:00:00:Z","depth":0,"parameterNumber":2,"parameterNumberName":"U-component_of_WINDS"},"data":[0,0,0,0,0,0,0,0,0,0,0,0,0,0,0,0,0,0,0,0,0,0,0,0,0,0,0,0,0,0,0,0,0,0,0,0,0,0,0,0,0,0,0,0,0,0,0,0,0,0,0,0,0,0,0,0,0,0,1.1466,1.1466,0,1.154,1.1541,1.1542,1.1565,1.1564,1.1564,1.1564,1.1641,1.1643,1.1646,0,0,0,0,0,0,0,0,0,0,0,0,0,1.1345,1.1348,1.1466,1.1466,1.1467,1.154,1.1541,1.1542,1.1565,1.1564,1.1564,1.1564,1.164,1.1643,1.1646,0,0,0,0,0,0,0,0,0,0,0,0,0,1.1407,1.1348,1.1465,1.1488,1.149,1.154,1.1541,1.1542,1.1565,1.1564,1.1564,1.1563,1.1639,1.1643,1.1646,1.1679,0,0,1.1657,1.1659,0,0,0,0,0,0,0,0,1.1403,1.1411,1.1483,1.1486,1.1489,1.1543,1.1527,1.1588,1.1565,1.1537,1.1564,1.1563,1.1609,1.1615,1.163,1.1683,1.1686,1.1657,1.166,1.1661,1.1662,0,0,0,0,0,0,0,1.1399,1.1408,1.1495,1.1484,1.1488,1.1495,1.1503,1.1539,1.1575,1.1539,1.1541,1.1549,1.161,1.1626,1.1632,1.1687,1.1657,1.166,1.1663,1.1664,1.1773,1.1774,0,0,0,0,0,0,1.1391,1.1404,1.1493,1.1497,1.1444,1.1497,1.1506,1.1526,1.1574,1.1581,1.155,1.155,1.1621,1.1628,1.1635,1.1678,1.1661,1.1664,1.1667,1.1772,1.1773,1.1774,0,0,0,0,0,0,1.1388,1.1398,1.149,1.1451,1.1463,1.15,1.1522,1.1528,1.1544,1.1583,1.1589,1.156,1.162,1.163,1.1668,1.1681,1.1666,1.1669,1.1771,1.1772,1.1773,1.1763,0,0,0,0,0,0,1.1384,1.1397,1.1409,1.1451,1.1465,1.1521,1.1523,1.153,1.155,1.1551,1.1593,1.16,1.1621,1.1663,1.1672,1.1685,1.1672,1.177,1.1772,1.1773,1.1763,1.1764,1.1765,0,0,0,0,0,1.138,1.1403,1.141,1.142,1.1481,1.1522,1.153,1.1553,1.1551,1.1564,1.1589,1.1599,1.1678,1.1667,1.1677,1.1692,1.177,1.1771,1.1773,1.1762,1.1764,1.1765,0,0,0,0,0,0,1.1362,1.1409,1.1417,1.1454,1.1484,1.1526,1.1543,1.1554,1.1585,1.1585,1.1612,1.1622,1.1659,1.1679,1.1666,1.1727,1.1724,1.1728,1.1712,1.1714,1.1715,1.171,1.1675,0,0,0,0,0,1.1362,1.1391,1.1431,1.146,1.1474,1.1506,1.1525,1.154,1.1572,1.1585,1.1612,1.1643,1.1675,1.1696,1.1727,1.1766,1.1776,1.1781,1.1782,1.1783,1.1786,1.181,1.1813,1.1779,1.1779,1.1779,0,0,1.1363,1.1393,1.1409,1.1457,1.1482,1.1512,1.1516,1.1547,1.157,1.1589,1.1628,1.1649,1.1686,1.1725,1.1744,1.1743,1.1798,1.1785,1.1785,1.1788,1.1812,1.1815,1.1817,1.178,1.178,1.178,0,0,1.138,1.1405,1.1433,1.1458,1.1495,1.1516,1.1523,1.1564,1.1579,1.1618,1.1633,1.1661,1.1715,1.1741,1.1761,1.179,1.1801,1.18,1.1806,1.1828,1.1831,1.1833,1.1845,1.1848,1.1803,1.1803,1.1803,0,1.1377,1.1422,1.1446,1.1476,1.1498,1.1517,1.1546,1.1569,1.1615,1.163,1.1629,1.1698,1.1724,1.177,1.1777,1.1793,1.1802,1.1795,1.1828,1.1831,1.1834,1.1845,1.1849,1.1802,1.1802,1.1802,1.1802,0,1.1417,1.1448,1.1466,1.151,1.1533,1.1563,1.1592,1.1613,1.1627,1.1649,1.1689,1.1721,1.176,1.1772,1.1785,1.182,1.1819,1.1823,1.1821,1.1836,1.1847,1.1852,1.1802,1.1802,1.1802,1.1802,0,0,1.1424,1.1482,1.1488,1.1509,1.1552,1.1577,1.1608,1.1646,1.1665,1.1696,1.1724,1.177,1.1774,1.1797,1.1814,1.1833,1.1856,1.1835,1.1836,1.1838,1.1898,1.1895,1.19,1.1863,1.1864,1.1864,1.1895,0,1.1447,1.1503,1.1526,1.1572,1.1602,1.1621,1.1648,1.1678,1.17,1.1729,1.1753,1.1785,1.1788,1.1802,1.1822,1.1848,1.1868,1.1847,1.189,1.1891,1.188,1.1905,1.1902,1.193,1.19,1.19,1.1901,0,1.1482,1.1514,1.1562,1.1603,1.1617,1.1641,1.1679,1.1706,1.1741,1.1755,1.1782,1.1798,1.1832,1.1828,1.1876,1.1861,1.188,1.1896,1.1898,1.1903,1.1897,1.1912,1.1939,1.1943,1.1908,1.1907,1.1907,0,1.1483,1.1538,1.1575,1.1592,1.1641,1.1658,1.1679,1.1714,1.1736,1.1769,1.1784,1.182,1.184,1.1869,1.1895,1.1889,1.1942,1.1939,1.1956,1.1955,1.1966,1.1965,1.1997,1.1977,1.1977,1.1977,1.1977,0,1.1507,1.1537,1.1577,1.1599,1.1633,1.166,1.1693,1.1716,1.1746,1.1775,1.1793,1.1819,1.1852,1.1882,1.1903,1.1941,1.195,1.1963,1.1968,1.1962,1.196,1.1975,1.1974,1.1978,1.1978,1.1978,1.1977,0,1.1515,1.1543,1.1584,1.1627,1.1639,1.1662,1.1699,1.1723,1.1745,1.1781,1.179,1.1826,1.1863,1.1892,1.194,1.1954,1.1995,1.2,1.1983,1.1985,1.2001,1.1999,1.2044,1.2052,1.2026,1.2026,1.2026,0,1.1529,1.1552,1.1598,1.1618,1.1639,1.1671,1.1693,1.1721,1.1744,1.1787,1.1805,1.1844,1.1876,1.1935,1.1965,1.2003,1.201,1.2023,1.2015,1.2009,1.2011,1.201,1.2013,1.2024,1.2024,1.2024,1.2024,0,1.1551,1.1564,1.1595,1.1633,1.1659,1.169,1.1721,1.1736,1.177,1.1795,1.1833,1.1858,1.1908,1.1947,1.1987,1.201,1.2023,1.2026,1.2032,1.2026,1.2015,1.2022,1.1986,1.2025,1.2025,1.2025,1.2025,1.2025,1.1563,1.1584,1.162,1.1656,1.1682,1.1711,1.1735,1.1761,1.1794,1.1836,1.1851,1.189,1.1927,1.1983,1.2006,1.2038,1.2039,1.2047,1.2049,1.2051,1.2051,1.201,1.2046,1.2046,1.2046,1.2046,1.2046,0,1.1586,1.1611,1.1643,1.1686,1.1714,1.1724,1.1759,1.1782,1.1817,1.1849,1.1881,1.1925,1.1963,1.1997,1.2037,1.2056,1.2063,1.2066,1.2065,1.207,1.2048,1.2039,1.2059,1.2059,1.2059,1.2059,1.2059,1.2059,1.1602,1.164,1.1657,1.1709,1.1734,1.1773,1.1792,1.1819,1.1846,1.1895,1.1926,1.1948,1.1982,1.2024,1.206,1.2069,1.2083,1.2084,1.2095,1.2073,1.2071,1.207,1.2062,1.2086,1.2086,1.2114,1.2115,1.2115]},{"header":{"parameterUnit":"m.s-1","parameterCategory":1,"la1":30.2991,"la2":30.254,"lo1":-89.0895,"lo2":-89.0444,"dy":0.0017,"dx":0.0017,"nx":28,"ny":28,"refTime":"2025-04-06T21:00:00:Z","depth":0,"parameterNumber":3,"parameterNumberName":"V-component_of_WINDS"},"data":[0,0,0,0,0,0,0,0,0,0,0,0,0,0,0,0,0,0,0,0,0,0,0,0,0,0,0,0,0,0,0,0,0,0,0,0,0,0,0,0,0,0,0,0,0,0,0,0,0,0,0,0,0,0,0,0,0,0,-3.0439,-3.044,0,-3.0521,-3.0522,-3.0523,-3.0608,-3.0609,-3.061,-3.0611,-3.0693,-3.0694,-3.0695,0,0,0,0,0,0,0,0,0,0,0,0,0,-3.0355,-3.0356,-3.0439,-3.044,-3.0441,-3.0521,-3.0522,-3.0523,-3.0608,-3.0609,-3.0611,-3.0612,-3.0692,-3.0693,-3.0695,0,0,0,0,0,0,0,0,0,0,0,0,0,-3.041,-3.0357,-3.0439,-3.0493,-3.0499,-3.0521,-3.0522,-3.0523,-3.0607,-3.0609,-3.0611,-3.0613,-3.0692,-3.0693,-3.0695,-3.0669,0,0,-3.07,-3.07,0,0,0,0,0,0,0,0,-3.0406,-3.0413,-3.0484,-3.0489,-3.0496,-3.0556,-3.0522,-3.0572,-3.0607,-3.0566,-3.0612,-3.0614,-3.0646,-3.0651,-3.0662,-3.0673,-3.0676,-3.07,-3.0701,-3.0702,-3.0702,0,0,0,0,0,0,0,-3.0403,-3.041,-3.0471,-3.0485,-3.0492,-3.0513,-3.0523,-3.0532,-3.0595,-3.057,-3.0576,-3.0585,-3.0649,-3.0661,-3.0665,-3.0677,-3.07,-3.0701,-3.0702,-3.0703,-3.0673,-3.0672,0,0,0,0,0,0,-3.0391,-3.0406,-3.0469,-3.0474,-3.0455,-3.0513,-3.0524,-3.0535,-3.0595,-3.0606,-3.0583,-3.0589,-3.0657,-3.0663,-3.0668,-3.0643,-3.0701,-3.0703,-3.0704,-3.0675,-3.0673,-3.0671,0,0,0,0,0,0,-3.0389,-3.0396,-3.0465,-3.0442,-3.0452,-3.0513,-3.0524,-3.0536,-3.0547,-3.0605,-3.0617,-3.0584,-3.0659,-3.0666,-3.0669,-3.0647,-3.0704,-3.0705,-3.0677,-3.0674,-3.0672,-3.0592,0,0,0,0,0,0,-3.0386,-3.0394,-3.0385,-3.0441,-3.0453,-3.0464,-3.0523,-3.0536,-3.055,-3.0558,-3.0608,-3.0619,-3.0661,-3.0666,-3.067,-3.065,-3.0706,-3.0679,-3.0676,-3.0673,-3.0596,-3.0587,-3.0578,0,0,0,0,0,-3.0383,-3.0358,-3.0384,-3.0391,-3.0443,-3.0463,-3.047,-3.052,-3.0548,-3.0539,-3.0577,-3.0617,-3.0649,-3.0666,-3.0671,-3.0651,-3.0681,-3.0677,-3.0673,-3.0601,-3.0588,-3.0578,0,0,0,0,0,0,-3.0296,-3.0366,-3.0396,-3.0388,-3.0419,-3.0477,-3.0468,-3.0505,-3.0528,-3.0534,-3.0594,-3.0605,-3.0601,-3.0627,-3.0644,-3.0631,-3.0671,-3.0668,-3.0614,-3.0603,-3.0594,-3.0587,-3.0708,0,0,0,0,0,-3.0276,-3.0288,-3.0348,-3.0336,-3.035,-3.0406,-3.0417,-3.0453,-3.0487,-3.05,-3.0538,-3.0569,-3.0586,-3.0596,-3.0615,-3.0601,-3.0614,-3.059,-3.0581,-3.0573,-3.057,-3.0566,-3.0557,-3.0658,-3.0658,-3.0658,0,0,-3.0235,-3.0275,-3.0278,-3.0319,-3.0348,-3.0358,-3.0416,-3.0424,-3.0432,-3.0501,-3.0506,-3.0535,-3.0574,-3.0569,-3.0569,-3.059,-3.0545,-3.0568,-3.0562,-3.0563,-3.0561,-3.0551,-3.0543,-3.0656,-3.0656,-3.0657,0,0,-3.0165,-3.0196,-3.019,-3.0218,-3.0261,-3.0299,-3.0298,-3.0351,-3.0373,-3.038,-3.0433,-3.0443,-3.0472,-3.0498,-3.0514,-3.0458,-3.0496,-3.0463,-3.0414,-3.041,-3.0402,-3.0395,-3.0375,-3.0368,-3.0459,-3.0459,-3.0459,0,-3.0108,-3.0126,-3.0182,-3.0188,-3.0205,-3.027,-3.0264,-3.0288,-3.0334,-3.0345,-3.0369,-3.0408,-3.0438,-3.0441,-3.0427,-3.0439,-3.0439,-3.0456,-3.0399,-3.0392,-3.0387,-3.0369,-3.0361,-3.0455,-3.0455,-3.0456,-3.0456,0,-3.0054,-3.0066,-3.0056,-3.0101,-3.0118,-3.0117,-3.0174,-3.0183,-3.0219,-3.0254,-3.0262,-3.0301,-3.033,-3.0334,-3.0368,-3.0342,-3.0354,-3.0388,-3.0429,-3.0372,-3.0356,-3.0349,-3.0448,-3.045,-3.0451,-3.0452,0,0,-2.9929,-3.0008,-3.0003,-3.0025,-3.0079,-3.0089,-3.0093,-3.0123,-3.013,-3.0161,-3.0165,-3.019,-3.0222,-3.0241,-3.0279,-3.0275,-3.0229,-3.0309,-3.0311,-3.0293,-3.0204,-3.0178,-3.0169,-3.0255,-3.0254,-3.0253,-3.0201,0,-2.9868,-2.9879,-2.9931,-2.9927,-2.9939,-3.0003,-3.0006,-3.004,-3.0074,-3.0089,-3.0127,-3.0143,-3.0184,-3.0196,-3.0196,-3.0234,-3.0212,-3.0239,-3.026,-3.026,-3.0248,-3.0161,-3.0133,-3.0082,-3.0195,-3.0194,-3.0194,0,-2.9798,-2.9827,-2.9824,-2.988,-2.9887,-2.9889,-2.9922,-2.9936,-2.9975,-3.0001,-3.0024,-3.0067,-3.0075,-3.0115,-3.0127,-3.0145,-3.0157,-3.0177,-3.0177,-3.018,-3.0222,-3.0161,-3.0066,-3.0058,-3.0184,-3.0185,-3.0186,0,-2.9708,-2.9745,-2.9749,-2.9766,-2.9831,-2.9831,-2.9858,-2.99,-2.9915,-2.9944,-2.9955,-2.9984,-2.9999,-3.0021,-3.0071,-3.0095,-3.0078,-3.0122,-3.0099,-3.0098,-3.0091,-3.0091,-2.9996,-3.01,-3.01,-3.01,-3.01,0,-2.9634,-2.9629,-2.9709,-2.9711,-2.9709,-2.977,-2.9766,-2.9799,-2.9836,-2.9846,-2.9903,-2.991,-2.9977,-2.9993,-3.0032,-3.0037,-3.0043,-3.0064,-3.0074,-3.0059,-3.0056,-3.0066,-3.0071,-3.0098,-3.0098,-3.0099,-3.0099,0,-2.9531,-2.9584,-2.9593,-2.9655,-2.9671,-2.9666,-2.9719,-2.9724,-2.9763,-2.9775,-2.9781,-2.9842,-2.9864,-2.9917,-2.9952,-2.9979,-2.9973,-2.9992,-2.9959,-2.9966,-2.9941,-2.9942,-2.9849,-2.984,-2.9949,-2.9948,-2.9947,0,-2.948,-2.9478,-2.9541,-2.9553,-2.9578,-2.9595,-2.9612,-2.9673,-2.9688,-2.9735,-2.9734,-2.9761,-2.9785,-2.9818,-2.9864,-2.9892,-2.9913,-2.9878,-2.9917,-2.9902,-2.9912,-2.9911,-2.9912,-2.9869,-2.9868,-2.9866,-2.9865,0,-2.9383,-2.9411,-2.9433,-2.9466,-2.9485,-2.9513,-2.9545,-2.9551,-2.9619,-2.9633,-2.9657,-2.9676,-2.9714,-2.974,-2.9776,-2.9804,-2.9846,-2.9853,-2.985,-2.9833,-2.9814,-2.9824,-2.9936,-2.9855,-2.9856,-2.9857,-2.9857,-2.9858,-2.9305,-2.9308,-2.9353,-2.9377,-2.9408,-2.9436,-2.9444,-2.9486,-2.9507,-2.9543,-2.9578,-2.9598,-2.9641,-2.9694,-2.9719,-2.9736,-2.9758,-2.9752,-2.975,-2.9748,-2.9741,-2.9812,-2.9743,-2.9743,-2.9744,-2.9744,-2.9744,0,-2.9212,-2.9245,-2.9267,-2.931,-2.9329,-2.937,-2.9407,-2.942,-2.9438,-2.9475,-2.9499,-2.9527,-2.9553,-2.9604,-2.9635,-2.9639,-2.9659,-2.9645,-2.9645,-2.9651,-2.972,-2.972,-2.9628,-2.9628,-2.9628,-2.9628,-2.9628,-2.9628,-2.9165,-2.9172,-2.9205,-2.9228,-2.9262,-2.9284,-2.9302,-2.9329,-2.9359,-2.9388,-2.9411,-2.9445,-2.9487,-2.9522,-2.9549,-2.9563,-2.9571,-2.9551,-2.9571,-2.9635,-2.9645,-2.9656,-2.9656,-2.9552,-2.9552,-2.95,-2.95,-2.9499]}]]